IK0TIX Weather Reports


time (UTC)temp
C
wind
direction
speed
KPH
gust
KPH
rain 1hr
cm
rain 24hr
cm
rain mn
cm
humidity
%
barometer
mb
20260906075930 28 1 3.2 6.4 0.00 0.00 0.00 64 1020.6
20260906075434 27 29 1.6 6.4 0.00 0.00 0.00 63 1020.6
20260906074955 27 11 1.6 3.2 0.00 0.00 0.00 63 1020.5
20260906074431 27 30 0.0 0.0 0.00 0.00 0.00 63 1020.5
20260906073959 27 11 0.0 0.0 0.00 0.00 0.00 62 1020.4
20260906073501 27 15 0.0 0.0 0.00 0.00 0.00 63 1020.5
20260906072937 27 30 0.0 0.0 0.00 0.00 0.00 63 1020.4
20260906072505 26 36 0.0 1.6 0.00 0.00 0.00 63 1020.5
20260906072011 26 30 0.0 6.4 0.00 0.00 0.00 63 1020.4
20260906071448 26 34 1.6 6.4 0.00 0.00 0.00 63 1020.4
20260906070945 26 15 1.6 4.8 0.00 0.00 0.00 64 1020.4
20260906070446 26 32 0.0 4.8 0.00 0.00 0.00 65 1020.4
20260906065944 26 29 0.0 4.8 0.00 0.00 0.00 65 1020.4
20260906065442 26 25 0.0 4.8 0.00 0.00 0.00 65 1020.3
20260906065008 25 23 1.6 6.4 0.00 0.00 0.00 65 1020.3
20260906064445 25 19 1.6 6.4 0.00 0.00 0.00 66 1020.3
20260906063950 25 22 1.6 4.8 0.00 0.00 0.00 66 1020.3
20260906063428 25 11 1.6 4.8 0.00 0.00 0.00 66 1020.3
20260906062924 25 18 0.0 4.8 0.00 0.00 0.00 67 1020.3
20260906062453 25 18 0.0 3.2 0.00 0.00 0.00 68 1020.2
20260906061947 25 63 0.0 9.7 0.00 0.00 0.00 69 1020.2
20260906061455 24 63 4.8 9.7 0.00 0.00 0.00 68 1020.2
20260906060950 24 80 3.2 11.3 0.00 0.00 0.00 69 1020.2
20260906060449 24 58 4.8 11.3 0.00 0.00 0.00 69 1020.1
20260906055947 24 49 1.6 8.0 0.00 0.00 0.00 69 1020.2
20260906055444 23 41 4.8 11.3 0.00 0.00 0.00 69 1020.1
20260906054943 23 36 6.4 11.3 0.00 0.00 0.00 69 1020.1
20260906054440 24 30 3.2 9.7 0.00 0.00 0.00 70 1020.1
20260906053937 23 81 3.2 11.3 0.00 0.00 0.00 70 1020.0
20260906053435 23 65 3.2 8.0 0.00 0.00 0.00 71 1020.0
20260906052931 23 59 4.8 8.0 0.00 0.00 0.00 70 1019.9
20260906052515 23 49 3.2 8.0 0.00 0.00 0.00 71 1019.9
20260906051951 23 59 1.6 8.0 0.00 0.00 0.00 71 1019.9
20260906051449 23 48 3.2 8.0 0.00 0.00 0.00 71 1019.9
20260906050946 23 49 1.6 9.7 0.00 0.00 0.00 72 1019.8
20260906050445 23 66 3.2 9.7 0.00 0.00 0.00 71 1019.8
20260906045942 23 45 3.2 8.0 0.00 0.00 0.00 72 1019.8
20260906045440 23 42 1.6 9.7 0.00 0.00 0.00 71 1019.8
20260906044937 23 31 1.6 9.7 0.00 0.00 0.00 72 1019.7
20260906044435 23 42 3.2 8.0 0.00 0.00 0.00 72 1019.7
20260906043936 23 18 1.6 8.0 0.00 0.00 0.00 72 1019.6
20260906043433 23 70 1.6 8.0 0.00 0.00 0.00 72 1019.6
20260906042925 23 57 1.6 8.0 0.00 0.00 0.00 72 1019.6
20260906042454 23 46 3.2 8.0 0.00 0.00 0.00 72 1019.5
20260906041952 23 21 1.6 8.0 0.00 0.00 0.00 72 1019.6
20260906041450 23 20 3.2 8.0 0.00 0.00 0.00 72 1019.6
20260906040947 23 24 1.6 8.0 0.00 0.00 0.00 73 1019.6
20260906040445 23 55 3.2 8.0 0.00 0.00 0.00 72 1019.6
20260906035942 23 36 3.2 6.4 0.00 0.00 0.00 72 1019.5
20260906035439 23 28 1.6 6.4 0.00 0.00 0.00 72 1019.6
20260906034934 23 21 1.6 6.4 0.00 0.00 0.00 72 1019.4
20260906034500 24 44 1.6 6.4 0.00 0.00 0.00 72 1019.4
20260906033937 24 37 0.0 8.0 0.00 0.00 0.00 72 1019.4
20260906033428 24 20 3.2 8.0 0.00 0.00 0.00 72 1019.4
20260906032926 24 1 3.2 9.7 0.00 0.00 0.00 72 1019.3
20260906032455 24 40 3.2 9.7 0.00 0.00 0.00 72 1019.3
20260906031953 24 353 4.8 8.0 0.00 0.00 0.00 72 1019.4
20260906031451 24 65 3.2 6.4 0.00 0.00 0.00 72 1019.3
20260906030927 24 11 3.2 8.0 0.00 0.00 0.00 72 1019.4
20260906030456 24 24 4.8 8.0 0.00 0.00 0.00 72 1019.3
20260906025954 24 38 1.6 9.7 0.00 0.00 0.00 72 1019.3
20260906025429 24 46 4.8 9.7 0.00 0.00 0.00 72 1019.3
20260906025010 24 25 3.2 6.4 0.00 0.00 0.00 71 1019.4
20260906024447 24 67 1.6 9.7 0.00 0.00 0.00 72 1019.4
20260906023955 24 57 3.2 9.7 0.00 0.00 0.00 71 1019.4
20260906023451 25 50 4.8 8.0 0.00 0.00 0.00 71 1019.4
20260906022950 25 40 3.2 9.7 0.00 0.00 0.00 71 1019.4
20260906022448 25 38 3.2 9.7 0.00 0.00 0.00 70 1019.5
20260906021945 25 33 3.2 8.0 0.00 0.00 0.00 70 1019.5
20260906021442 25 21 1.6 6.4 0.00 0.00 0.00 71 1019.4
20260906020951 25 39 1.6 4.8 0.00 0.00 0.00 70 1019.4
20260906020449 25 43 1.6 4.8 0.00 0.00 0.00 70 1019.4
20260906015947 25 59 1.6 6.4 0.00 0.00 0.00 70 1019.4
20260906015438 25 56 3.2 6.4 0.00 0.00 0.00 70 1019.4
20260906014938 25 60 3.2 6.4 0.00 0.00 0.00 70 1019.4
20260906014434 25 71 3.2 6.4 0.00 0.00 0.00 70 1019.4
20260906013931 25 47 1.6 6.4 0.00 0.00 0.00 69 1019.5
20260906013429 25 49 1.6 4.8 0.00 0.00 0.00 69 1019.5
20260906012925 25 52 1.6 4.8 0.00 0.00 0.00 68 1019.5
20260906012456 25 52 1.6 4.8 0.00 0.00 0.00 68 1019.5
20260906011952 25 55 1.6 4.8 0.00 0.00 0.00 68 1019.6
20260906011450 25 59 1.6 4.8 0.00 0.00 0.00 67 1019.5
20260906010947 25 47 1.6 4.8 0.00 0.00 0.00 67 1019.5
20260906010444 26 34 1.6 4.8 0.00 0.00 0.00 66 1019.6
20260906005940 26 107 0.0 4.8 0.00 0.00 0.00 66 1019.5
20260906005434 26 107 0.0 6.4 0.00 0.00 0.00 66 1019.5
20260906004931 26 109 3.2 6.4 0.00 0.00 0.00 66 1019.5
20260906004428 26 110 0.0 0.0 0.00 0.00 0.00 66 1019.4
20260906003955 26 110 0.0 0.0 0.00 0.00 0.00 66 1019.5
20260906003450 26 110 0.0 4.8 0.00 0.00 0.00 66 1019.5
20260906002927 26 110 0.0 4.8 0.00 0.00 0.00 67 1019.5
20260906002454 26 110 0.0 1.6 0.00 0.00 0.00 66 1019.5
20260906001931 26 110 0.0 4.8 0.00 0.00 0.00 65 1019.6
20260906001430 26 110 0.0 4.8 0.00 0.00 0.00 65 1019.6
20260906000927 26 110 1.6 4.8 0.00 0.00 0.00 65 1019.6
20260906000451 26 110 1.6 4.8 0.00 0.00 0.00 65 1019.6
20260905235950 26 109 1.6 4.8 0.00 0.00 0.00 65 1019.6
20260905235448 26 107 1.6 4.8 0.00 0.00 0.00 65 1019.6
20260905234946 26 107 0.0 3.2 0.00 0.00 0.00 65 1019.7
20260905234445 26 107 0.0 4.8 0.00 0.00 0.00 66 1019.8
20260905233941 26 107 1.6 4.8 0.00 0.00 0.00 66 1019.8
20260905233439 26 107 1.6 4.8 0.00 0.00 0.00 65 1019.8
20260905232936 26 118 1.6 4.8 0.00 0.00 0.00 65 1019.8
20260905232434 26 111 0.0 0.0 0.00 0.00 0.00 66 1019.7
20260905231939 26 114 0.0 0.0 0.00 0.00 0.00 65 1019.8
20260905231436 26 118 0.0 4.8 0.00 0.00 0.00 66 1019.8
20260905230935 26 118 1.6 4.8 0.00 0.00 0.00 66 1019.7
20260905230458 26 115 1.6 4.8 0.00 0.00 0.00 66 1019.7
20260905225942 26 113 0.0 4.8 0.00 0.00 0.00 66 1019.7
20260905225442 26 96 0.0 4.8 0.00 0.00 0.00 67 1019.6
20260905224938 26 96 0.0 4.8 0.00 0.00 0.00 67 1019.7
20260905224444 26 96 1.6 4.8 0.00 0.00 0.00 66 1019.8
20260905224008 26 103 3.2 4.8 0.00 0.00 0.00 66 1019.8
20260905223443 26 102 1.6 4.8 0.00 0.00 0.00 66 1019.8
20260905222952 26 98 0.0 0.0 0.00 0.00 0.00 68 1019.9
20260905222445 26 98 0.0 0.0 0.00 0.00 0.00 68 1019.9
20260905221942 26 98 0.0 4.8 0.00 0.00 0.00 69 1019.8
20260905221440 26 98 1.6 6.4 0.00 0.00 0.00 68 1019.8
20260905220936 26 104 4.8 6.4 0.00 0.00 0.00 68 1019.8
20260905220434 27 161 1.6 4.8 0.00 0.00 0.00 68 1019.7
20260905215950 27 168 0.0 0.0 0.00 0.00 0.00 68 1019.8
20260905215427 27 168 0.0 0.0 0.00 0.00 0.00 68 1019.6
20260905215015 27 168 0.0 0.0 0.00 0.00 0.00 68 1019.7
20260905214451 27 168 0.0 0.0 0.00 0.00 0.00 68 1019.7
20260905214012 27 168 0.0 0.0 0.00 0.00 0.00 68 1019.7
20260905213448 27 168 0.0 0.0 0.00 0.00 0.00 68 1019.6
20260905212946 27 168 0.0 0.0 0.00 0.00 0.00 68 1019.7
20260905212444 27 168 0.0 0.0 0.00 0.00 0.00 68 1019.7
20260905212011 27 168 0.0 0.0 0.00 0.00 0.00 68 1019.6
20260905211447 27 168 0.0 0.0 0.00 0.00 0.00 68 1019.7
20260905210944 27 168 0.0 0.0 0.00 0.00 0.00 68 1019.8
20260905210441 27 168 0.0 0.0 0.00 0.00 0.00 68 1019.6
20260905205939 27 168 0.0 0.0 0.00 0.00 0.00 68 1019.6
20260905205438 27 168 0.0 0.0 0.00 0.00 0.00 68 1019.7
20260905204937 27 168 0.0 0.0 0.00 0.00 0.00 68 1019.7
20260905204429 27 168 0.0 0.0 0.00 0.00 0.00 69 1019.6
20260905203928 27 168 0.0 0.0 0.00 0.00 0.00 69 1019.7
20260905203427 27 168 0.0 0.0 0.00 0.00 0.00 69 1019.6
20260905202925 27 168 0.0 0.0 0.00 0.00 0.00 69 1019.5
20260905202454 27 168 0.0 3.2 0.00 0.00 0.00 68 1019.5
20260905201952 27 168 0.0 3.2 0.00 0.00 0.00 68 1019.6
20260905201427 27 178 0.0 0.0 0.00 0.00 0.00 68 1019.6
20260905200952 27 178 0.0 0.0 0.00 0.00 0.00 67 1019.6
20260905200451 27 178 0.0 1.6 0.00 0.00 0.00 67 1019.6
20260905195950 27 178 0.0 1.6 0.00 0.00 0.00 66 1019.6
20260905195445 27 256 0.0 1.6 0.00 0.00 0.00 66 1019.7
20260905194947 28 256 0.0 1.6 0.00 0.00 0.00 66 1019.6
20260905194444 28 256 0.0 0.0 0.00 0.00 0.00 67 1019.6
20260905193942 28 256 0.0 0.0 0.00 0.00 0.00 66 1019.6
20260905193436 27 256 0.0 0.0 0.00 0.00 0.00 67 1019.5
20260905192934 27 256 0.0 0.0 0.00 0.00 0.00 67 1019.5
20260905192433 27 256 0.0 1.6 0.00 0.00 0.00 67 1019.5
20260905191931 27 256 0.0 4.8 0.00 0.00 0.00 67 1019.4
20260905191429 27 256 0.0 4.8 0.00 0.00 0.00 67 1019.4
20260905190956 27 256 0.0 4.8 0.00 0.00 0.00 67 1019.4
20260905190431 27 256 1.6 6.4 0.00 0.00 0.00 66 1019.3
20260905185928 27 254 1.6 6.4 0.00 0.00 0.00 66 1019.3
20260905185452 27 260 3.2 4.8 0.00 0.00 0.00 66 1019.3
20260905184928 28 254 3.2 8.0 0.00 0.00 0.00 65 1019.3
20260905184426 28 244 3.2 8.0 0.00 0.00 0.00 65 1019.3
20260905183955 28 283 3.2 6.4 0.00 0.00 0.00 65 1019.2
20260905183453 28 267 3.2 8.0 0.00 0.00 0.00 64 1019.1
20260905182953 28 257 4.8 8.0 0.00 0.00 0.00 64 1019.1
20260905182451 28 273 1.6 8.0 0.00 0.00 0.00 63 1019.0
20260905181949 28 255 3.2 11.3 0.00 0.00 0.00 63 1019.0
20260905181448 28 284 4.8 11.3 0.00 0.00 0.00 62 1019.0
20260905180926 28 242 4.8 11.3 0.00 0.00 0.00 62 1018.9
20260905180448 28 235 4.8 9.7 0.00 0.00 0.00 62 1018.8
20260905175947 28 269 4.8 11.3 0.00 0.00 0.00 62 1018.8
20260905175444 28 287 4.8 11.3 0.00 0.00 0.00 61 1018.8
20260905174942 29 241 3.2 14.5 0.00 0.00 0.00 61 1018.7
20260905174441 29 252 4.8 14.5 0.00 0.00 0.00 60 1018.6
20260905173938 29 248 4.8 16.1 0.00 0.00 0.00 60 1018.5
20260905173504 30 244 3.2 16.1 0.00 0.00 0.00 59 1018.5
20260905172948 30 247 8.0 16.1 0.00 0.00 0.00 58 1018.5
20260905172446 30 266 6.4 14.5 0.00 0.00 0.00 57 1018.4
20260905171925 30 256 8.0 14.5 0.00 0.00 0.00 56 1018.3
20260905171453 30 271 6.4 19.3 0.00 0.00 0.00 55 1018.4
20260905170947 31 235 11.3 19.3 0.00 0.00 0.00 55 1018.4
20260905170445 31 261 8.0 17.7 0.00 0.00 0.00 54 1018.4
20260905165943 31 283 8.0 12.9 0.00 0.00 0.00 54 1018.4
20260905165441 31 257 8.0 20.9 0.00 0.00 0.00 53 1018.4
20260905164939 32 317 4.8 22.5 0.00 0.00 0.00 52 1018.5
20260905164438 32 233 12.9 22.5 0.00 0.00 0.00 51 1018.4
20260905163938 32 316 8.0 19.3 0.00 0.00 0.00 50 1018.3
20260905163436 32 276 11.3 17.7 0.00 0.00 0.00 49 1018.3
20260905162935 32 213 12.9 19.3 0.00 0.00 0.00 48 1018.3
20260905162435 33 276 6.4 16.1 0.00 0.00 0.00 47 1018.2
20260905161934 33 288 6.4 16.1 0.00 0.00 0.00 46 1018.2
20260905161433 33 246 9.7 17.7 0.00 0.00 0.00 47 1018.1
20260905160934 33 213 3.2 12.9 0.00 0.00 0.00 49 1018.1
20260905160459 33 255 4.8 19.3 0.00 0.00 0.00 50 1018.1
20260905160005 33 241 9.7 19.3 0.00 0.00 0.00 50 1018.2
20260905155441 33 223 8.0 20.9 0.00 0.00 0.00 49 1018.2
20260905155007 33 273 6.4 20.9 0.00 0.00 0.00 48 1018.2
20260905154444 33 303 9.7 19.3 0.00 0.00 0.00 47 1018.2
20260905153951 34 233 14.5 19.3 0.00 0.00 0.00 43 1018.2
20260905153448 34 248 12.9 19.3 0.00 0.00 0.00 44 1018.3
20260905152944 34 248 4.8 16.1 0.00 0.00 0.00 45 1018.3
20260905152440 34 227 9.7 16.1 0.00 0.00 0.00 46 1018.3
20260905151939 34 251 6.4 16.1 0.00 0.00 0.00 45 1018.4
20260905151506 33 198 6.4 16.1 0.00 0.00 0.00 45 1018.3
20260905150944 33 283 6.4 14.5 0.00 0.00 0.00 46 1018.3
20260905150441 33 250 6.4 14.5 0.00 0.00 0.00 48 1018.4
20260905145937 33 230 6.4 17.7 0.00 0.00 0.00 49 1018.4
20260905145436 33 242 9.7 22.5 0.00 0.00 0.00 50 1018.4
20260905144930 33 252 11.3 22.5 0.00 0.00 0.00 50 1018.5
20260905144431 33 271 9.7 24.1 0.00 0.00 0.00 50 1018.5
20260905143930 33 258 12.9 24.1 0.00 0.00 0.00 51 1018.5
20260905143435 33 235 8.0 19.3 0.00 0.00 0.00 51 1018.5
20260905142929 33 277 9.7 22.5 0.00 0.00 0.00 50 1018.5
20260905142425 33 257 6.4 22.5 0.00 0.00 0.00 50 1018.5
20260905141952 33 223 12.9 24.1 0.00 0.00 0.00 51 1018.6
20260905141449 33 229 8.0 24.1 0.00 0.00 0.00 49 1018.7
20260905140947 33 286 9.7 24.1 0.00 0.00 0.00 49 1018.7
20260905140454 33 246 9.7 24.1 0.00 0.00 0.00 50 1018.6
20260905135952 33 257 4.8 24.1 0.00 0.00 0.00 47 1018.6
20260905135451 33 258 9.7 24.1 0.00 0.00 0.00 47 1018.7
20260905134948 33 281 11.3 24.1 0.00 0.00 0.00 47 1018.7
20260905134446 33 219 9.7 24.1 0.00 0.00 0.00 46 1018.7
20260905134009 33 265 12.9 24.1 0.00 0.00 0.00 46 1018.9
20260905133446 33 292 11.3 24.1 0.00 0.00 0.00 45 1018.8
20260905132924 33 262 11.3 22.5 0.00 0.00 0.00 45 1018.9
20260905132453 33 269 8.0 24.1 0.00 0.00 0.00 44 1018.9
20260905131948 34 304 12.9 24.1 0.00 0.00 0.00 43 1019.0
20260905131447 35 257 9.7 25.7 0.00 0.00 0.00 41 1018.9
20260905130944 35 269 12.9 25.7 0.00 0.00 0.00 40 1018.9
20260905130442 35 248 9.7 22.5 0.00 0.00 0.00 38 1018.9
20260905125940 35 242 12.9 22.5 0.00 0.00 0.00 39 1018.9
20260905125437 35 261 12.9 22.5 0.00 0.00 0.00 39 1018.9
20260905124936 35 272 12.9 22.5 0.00 0.00 0.00 37 1018.9
20260905124433 35 258 12.9 20.9 0.00 0.00 0.00 38 1018.9
20260905123929 35 220 6.4 20.9 0.00 0.00 0.00 38 1018.9
20260905123451 35 238 6.4 19.3 0.00 0.00 0.00 38 1018.8
20260905122950 34 244 12.9 19.3 0.00 0.00 0.00 40 1018.9
20260905122450 34 265 11.3 20.9 0.00 0.00 0.00 41 1018.9
20260905121949 35 246 8.0 20.9 0.00 0.00 0.00 40 1019.0
20260905121444 34 263 6.4 17.7 0.00 0.00 0.00 39 1018.9
20260905120942 34 236 8.0 19.3 0.00 0.00 0.00 37 1019.0
20260905120442 34 309 9.7 19.3 0.00 0.00 0.00 40 1019.1
20260905115939 34 238 4.8 17.7 0.00 0.00 0.00 38 1019.0
20260905115439 34 231 9.7 19.3 0.00 0.00 0.00 38 1019.1
20260905114937 34 330 9.7 19.3 0.00 0.00 0.00 38 1019.0
20260905114500 34 270 6.4 17.7 0.00 0.00 0.00 38 1019.0
20260905113937 34 293 6.4 22.5 0.00 0.00 0.00 37 1019.0
20260905113434 34 251 9.7 22.5 0.00 0.00 0.00 38 1019.0
20260905112931 34 282 8.0 14.5 0.00 0.00 0.00 37 1019.0
20260905112428 34 253 8.0 16.1 0.00 0.00 0.00 37 1019.0
20260905111927 35 323 8.0 17.7 0.00 0.00 0.00 36 1018.9
20260905111424 34 256 8.0 20.9 0.00 0.00 0.00 37 1018.9
20260905110953 34 254 9.7 19.3 0.00 0.00 0.00 37 1019.0
20260905110449 34 242 11.3 17.7 0.00 0.00 0.00 37 1019.0
20260905105944 34 235 6.4 22.5 0.00 0.00 0.00 37 1019.0
20260905105441 34 193 14.5 22.5 0.00 0.00 0.00 37 1019.0
20260905104939 34 283 11.3 20.9 0.00 0.00 0.00 37 1019.1
20260905104432 35 278 9.7 19.3 0.00 0.00 0.00 35 1019.1
20260905103929 35 250 6.4 16.1 0.00 0.00 0.00 35 1019.0
20260905103427 35 284 6.4 14.5 0.00 0.00 0.00 34 1019.1
20260905102924 34 265 4.8 16.1 0.00 0.00 0.00 33 1019.1
20260905102452 34 237 8.0 16.1 0.00 0.00 0.00 33 1019.1
20260905101951 34 299 4.8 12.9 0.00 0.00 0.00 33 1019.2
20260905101427 34 260 4.8 17.7 0.00 0.00 0.00 33 1019.1
20260905100924 34 238 6.4 17.7 0.00 0.00 0.00 33 1019.1
20260905100452 34 253 8.0 14.5 0.00 0.00 0.00 34 1019.2
20260905095950 34 260 4.8 14.5 0.00 0.00 0.00 34 1019.3
20260905095447 33 250 6.4 14.5 0.00 0.00 0.00 35 1019.3
20260905094940 33 296 1.6 12.9 0.00 0.00 0.00 34 1019.3
20260905094436 33 238 3.2 8.0 0.00 0.00 0.00 35 1019.4
20260905093934 33 237 1.6 6.4 0.00 0.00 0.00 36 1019.3
20260905093431 33 221 1.6 8.0 0.00 0.00 0.00 36 1019.2
20260905092926 32 258 1.6 8.0 0.00 0.00 0.00 36 1019.3
20260905092454 32 215 1.6 8.0 0.00 0.00 0.00 37 1019.4
20260905091950 32 260 4.8 9.7 0.00 0.00 0.00 37 1019.4
20260905091425 32 265 1.6 6.4 0.00 0.00 0.00 38 1019.4
20260905090952 31 246 1.6 6.4 0.00 0.00 0.00 39 1019.3
20260905090448 31 226 1.6 6.4 0.00 0.00 0.00 40 1019.3
20260905085949 31 236 3.2 8.0 0.00 0.00 0.00 40 1019.3
20260905085445 31 317 3.2 8.0 0.00 0.00 0.00 40 1019.3
20260905084942 31 317 3.2 6.4 0.00 0.00 0.00 40 1019.4
20260905084437 31 259 0.0 6.4 0.00 0.00 0.00 42 1019.3
20260905084003 30 138 1.6 9.7 0.00 0.00 0.00 43 1019.3
20260905083438 30 133 3.2 9.7 0.00 0.00 0.00 43 1019.2
20260905082934 30 304 1.6 4.8 0.00 0.00 0.00 44 1019.3
20260905082430 30 304 1.6 6.4 0.00 0.00 0.00 44 1019.4
20260905081925 30 281 1.6 6.4 0.00 0.00 0.00 44 1019.4
20260905081454 30 228 0.0 6.4 0.00 0.00 0.00 45 1019.4
20260905080929 29 308 3.2 6.4 0.00 0.00 0.00 45 1019.4
20260905080449 29 216 1.6 3.2 0.00 0.00 0.00 44 1019.3